Regional Weather Roundup
Issued by NWS

Home | Current Version | Previous Version | Text Only | Print | Product List | Glossary On
Versions: 1 2 3 4 5 6 7 8 9 10 11 12 13 14 15 16 17 18 19 20 21 22 23 24 25 26 27 28 29 30 31 32 33 34 35 36 37 38 39 40 41 42 43 44 45 46 47 48 49 50
000
ASUS43 KTOP 210408
RWRKS

WEATHER ROUNDUP FOR KANSAS
NATIONAL WEATHER SERVICE GOODLAND KS
1100 PM CDT SUN AUG 20 2017

NOTE:  "FAIR" INDICATES FEW OR NO CLOUDS BELOW 12,000 FEET WITH NO
SIGNIFICANT WEATHER AND/OR OBSTRUCTIONS TO VISIBILITY.

KSZ001>006-013>018-027>032-041>047-210500-
NORTHWEST KANSAS

CITY           SKY/WX    TMP DP  RH WIND       PRES   REMARKS
GOODLAND       CLEAR     72  64  76 S9        30.02R
HAYS           PTCLDY    78  65  63 S8        29.97R
HILL CITY      CLOUDY    82  64  54 S8        29.96R
RUSSELL        PTCLDY    83  68  60 S15       29.95R
$$

KSZ061>065-074>080-084>089-210500-
SOUTHWEST KANSAS

CITY           SKY/WX    TMP DP  RH WIND       PRES   REMARKS
DODGE CITY     PTCLDY    81  64  56 S15       30.01R
ELKHART          N/A     73  63  71 S12         N/A
GARDEN CITY    MOCLDY    76  63  64 SE9       30.01R
GREAT BEND     PTCLDY    80  69  69 S10       29.99R
LIBERAL        MOCLDY    76  66  71 S15       30.04R
PRATT          CLOUDY    83  68  59 S14       30.02R
$$

KSZ066>073-081>083-090>101-210500-
SOUTHEAST KANSAS

CITY           SKY/WX    TMP DP  RH WIND       PRES   REMARKS
CHANUTE        CLEAR     80  74  81 S7        30.04R
COFFEYVILLE    CLOUDY    81  75  82 SE6       30.04R
HUTCHINSON     CLOUDY    84  65  52 S10       30.00R
MEDICINE LODGE   N/A     82  69  64 S8        30.01R
NEWTON         CLOUDY    80  71  74 S12       30.02R
PARSONS        CLEAR     82  74  76 SE5       30.06R
WICHITA INTL   CLOUDY    82  71  69 S12       30.01R
WICHITA JABRA  CLOUDY    82  72  71 S13       30.02R
WICHITA MCCONL CLOUDY    83  69  64 S13       30.02R
WINFIELD       PTCLDY    80  72  76 S9        30.03R
$$

KSZ007>012-019>026-033>040-048>060-102>105-210500-
NORTHEAST KANSAS

CITY           SKY/WX    TMP DP  RH WIND       PRES   REMARKS
CONCORDIA      PTCLDY    83  71  67 S13       29.94R
EMPORIA        PTCLDY    80  72  76 S14       30.02R
LAWRENCE       CLOUDY    79  69  71 SE10      30.02R
MANHATTAN      CLOUDY    83  75  77 S7        29.97R
MARYSVILLE     PTCLDY    81  73  78 SE9       29.97R
OLATHE IND     MOCLDY    76  65  68 S12       30.05R
OLATHE EXE     CLOUDY    75  66  73 S12       30.04R
SALINA         CLOUDY    88  65  46 S13       29.96R
TOPEKA BILLARD CLOUDY    82  78  88 SE10      30.00R
TOPEKA FORBES  PTCLDY    84  77  79 SE8       30.02R
$$



USA.gov is the U.S. government's official web portal to all federal, state and local government web resources and services.